Preview of NWS' New Version of Forecast
This preview is not operational and should not be used for support decisions.

Regional Weather Roundup (RWR)

Issued by National Weather Service (NWS)

                            
000
ASUS43 KLSX 210357
RWRMO 

WEATHER SUMMARY FOR MISSOURI
NATIONAL WEATHER SERVICE SPRINGFIELD MO
1100 PM CDT FRI SEP 20 2019

NOTE: "FAIR" INDICATES FEW OR NO CLOUDS BELOW 12,000 FEET WITH NO
       SIGNIFICANT WEATHER AND/OR OBSTRUCTIONS TO VISIBILITY.
       CURRENT SKY AND/OR WEATHER CONDITIONS ARE NOT AVAILABLE FOR
       CHILLICOTHE AND FARMINGTON.

MOZ001>031-035>038-043-044-053-054-210500-
...NORTHERN AND WESTERN MISSOURI...
  
CITY           SKY/WX    TMP DP  RH WIND       PRES   REMARKS
KANSAS CTY INT DRIZZLE   72  69  90 S13G25    29.98S                  
LEE'S SUMMIT   CLOUDY    72  68  87 S13G21    30.00S                  
ST JOSEPH      CLOUDY    74  67  78 S14       29.96S                  
CHILLICOTHE      N/A     75  67  76 S7        30.01S                  
     
$$
MOZ066>068-077>081-088>096-101>105-210500-
...SOUTHWEST MISSOURI...
  
CITY           SKY/WX    TMP DP  RH WIND       PRES   REMARKS
SPRINGFIELD    MOCLDY    71  67  87 SE14      30.07R                  
JOPLIN         CLOUDY    73  68  84 S9        30.03S                  
               
$$
MOZ032>034-039>042-045>050-055>058-069>072-210500-
...CENTRAL MISSOURI...  
  
CITY           SKY/WX    TMP DP  RH WIND       PRES   REMARKS
COLUMBIA       NOT AVBL                                               
JEFFERSON CITY PTCLDY    76  69  79 SE8       30.06S                  
ROLLA          CLOUDY    72  68  87 S9        30.11F                  
SEDALIA        CLOUDY    71  68  90 S14       30.05S                  
WARRENSBURG    CLOUDY    72  64  78 SE12      30.02R                  
               
$$
MOZ051-052-059>065-210500-
...EAST CENTRAL MISSOURI...
  
CITY           SKY/WX    TMP DP  RH WIND       PRES   REMARKS
ST LOUIS INTL  MOCLDY    75  69  81 S9        30.12S                  
                   
$$
MOZ072>076-082>087-097>100-106>115-210500-
...SOUTH CENTRAL AND SOUTHEAST MISSOURI...
  
CITY           SKY/WX    TMP DP  RH WIND       PRES   REMARKS
CAPE GIRARDEAU FAIR      71  69  93 CALM      30.14S FOG              
POPLAR BLUFF   FAIR      72  70  93 CALM      30.13F                  
WEST PLAINS    PTCLDY    71  69  93 S5        30.15S                  
                                       
$$